Location: Austin
(30.3000°N, 97.7500°W)
Time: 05:13:41
(UTC-06:00)

OAO 3 Rocket - Pass Details

Date: 03 March 2026
Orbit: 613 x 661 km, 35.0° (Epoch: 5 March)

Event Time Altitude Azimuth Distance (km) Brightness Sun altitude
Rises 20:28:02 0° 289° (WNW) 2,960 7.8 -25.9°
Reaches altitude 10° 20:30:23 10° 289° (WNW) 2,054 6.7 -26.4°
Enters shadow 20:34:29 65° 286° (WNW) 718 3.5 -27.3°
